Time,TemperatureF,DewpointF,PressureIn,WindDirection,WindDirectionDegrees,WindSpeedMPH,WindSpeedGustMPH,Humidity,HourlyPrecipIn,Conditions,Clouds,dailyrainin,SoftwareType,DateUTC
2013-03-11 09:02:00,25.0,19.0,-100.00,NNE,24,1.0,-999.0,78,-99.99,,,0.28,,2013-03-11 16:02:00,
2013-03-11 09:12:00,25.0,19.0,-100.00,NNE,24,1.0,-999.0,78,-99.99,,,0.28,,2013-03-11 16:12:00,
2013-03-11 09:22:00,25.0,19.0,-100.00,NNE,24,1.0,-999.0,78,-99.99,,,0.28,,2013-03-11 16:22:00,
2013-03-11 09:32:00,25.0,19.0,-100.00,NNE,24,1.0,-999.0,78,-99.99,,,0.28,,2013-03-11 16:32:00,
2013-03-11 09:52:00,40.0,17.0,-100.00,East,94,1.0,2.0,39,0.00,,,-99.99,,2013-03-11 16:52:00,
2013-03-11 10:02:00,40.0,17.0,-100.00,East,94,1.0,2.0,39,0.00,,,-99.99,,2013-03-11 17:02:00,
2013-03-11 10:33:00,40.0,17.0,-100.00,East,94,1.0,2.0,39,0.00,,,-99.99,,2013-03-11 17:33:00,
2013-03-11 11:02:00,52.0,14.0,-100.00,ENE,67,1.0,5.0,22,0.00,,,0.27,,2013-03-11 18:02:00,
2013-03-11 11:32:00,52.0,14.0,-100.00,ENE,67,1.0,5.0,22,0.00,,,0.27,,2013-03-11 18:32:00,
2013-03-11 12:02:00,57.0,13.0,-100.00,SSE,168,2.0,4.0,17,0.00,,,-99.99,,2013-03-11 19:02:00,
2013-03-11 13:02:00,61.0,17.0,-100.00,East,79,2.0,9.0,18,-99.99,,,0.11,,2013-03-11 20:02:00,
2013-03-11 14:02:00,60.0,22.0,-100.00,North,357,4.0,11.0,23,-99.99,,,0.02,,2013-03-11 21:02:00,
2013-03-11 14:12:00,60.0,22.0,-100.00,North,357,4.0,11.0,23,-99.99,,,0.02,,2013-03-11 21:12:00,
2013-03-11 14:22:00,60.0,22.0,-100.00,North,357,4.0,11.0,23,-99.99,,,0.02,,2013-03-11 21:22:00,
2013-03-11 14:53:00,55.0,18.0,-100.00,ENE,58,3.0,11.0,23,0.00,,,0.00,,2013-03-11 21:53:00,
2013-03-11 15:02:00,55.0,18.0,-100.00,ENE,58,3.0,11.0,23,0.00,,,0.00,,2013-03-11 22:02:00,
2013-03-11 15:12:00,55.0,18.0,-100.00,ENE,58,3.0,11.0,23,0.00,,,0.00,,2013-03-11 22:12:00,
2013-03-11 15:22:00,55.0,18.0,-100.00,ENE,58,3.0,11.0,23,0.00,,,0.00,,2013-03-11 22:22:00,
2013-03-11 15:32:00,55.0,18.0,-100.00,ENE,58,3.0,11.0,23,0.00,,,0.00,,2013-03-11 22:32:00,
2013-03-11 16:02:00,59.0,18.0,-100.00,NNE,32,2.0,8.0,20,0.00,,,0.00,,2013-03-11 23:02:00,
2013-03-11 16:12:00,59.0,18.0,-100.00,NNE,32,2.0,8.0,20,0.00,,,0.00,,2013-03-11 23:12:00,
2013-03-11 16:22:00,59.0,18.0,-100.00,NNE,32,2.0,8.0,20,0.00,,,0.00,,2013-03-11 23:22:00,
2013-03-11 16:32:00,59.0,18.0,-100.00,NNE,32,2.0,8.0,20,0.00,,,0.00,,2013-03-11 23:32:00,
2013-03-11 17:02:00,61.0,20.0,-100.00,WNW,286,2.0,6.0,20,0.00,,,0.00,,2013-03-12 00:02:00,
2013-03-11 17:12:00,61.0,20.0,-100.00,WNW,286,2.0,6.0,20,0.00,,,0.00,,2013-03-12 00:12:00,
2013-03-11 17:22:00,61.0,20.0,-100.00,WNW,286,2.0,6.0,20,0.00,,,0.00,,2013-03-12 00:22:00,
2013-03-11 17:32:00,61.0,20.0,-100.00,WNW,286,2.0,6.0,20,0.00,,,0.00,,2013-03-12 00:32:00,
2013-03-11 18:02:00,55.0,17.0,-100.00,NNE,21,2.0,7.0,22,0.00,,,0.00,,2013-03-12 01:02:00,
2013-03-11 18:12:00,55.0,17.0,-100.00,NNE,21,2.0,7.0,22,0.00,,,0.00,,2013-03-12 01:12:00,
2013-03-11 18:22:00,55.0,17.0,-100.00,NNE,21,2.0,7.0,22,0.00,,,0.00,,2013-03-12 01:22:00,
2013-03-11 18:32:00,55.0,17.0,-100.00,NNE,21,2.0,7.0,22,0.00,,,0.00,,2013-03-12 01:32:00,
2013-03-11 19:02:00,50.0,25.0,-100.00,NW,309,1.0,6.0,37,0.00,,,0.00,,2013-03-12 02:02:00,
2013-03-11 19:12:00,50.0,25.0,-100.00,NW,309,1.0,6.0,37,0.00,,,0.00,,2013-03-12 02:12:00,
2013-03-11 19:22:00,50.0,25.0,-100.00,NW,309,1.0,6.0,37,0.00,,,0.00,,2013-03-12 02:22:00,
2013-03-11 19:32:00,50.0,25.0,-100.00,NW,309,1.0,6.0,37,0.00,,,0.00,,2013-03-12 02:32:00,